,,,PA_Meas_PMT16A,,PR_Meas_QMR101_102,,RH_Meas_QMH101,,SR_Meas_QMS101,,TA_Meas_QMH101,,GenWind,,GenWind,
date,time,status,PA,status,PR,status,RH,status,SR,status,TA,status,DirAvg,status,SpdAvg,
2010-08-25, 00:00:04,VALID,1010.35,VALID,0,VALID,101.583,VALID,0,VALID,23.6568,VALID,360,VALID,0,
2010-08-25, 00:01:04,VALID,1010.36,VALID,0,VALID,101.537,VALID,0,VALID,23.6161,VALID,360,VALID,0,
2010-08-25, 00:02:04,VALID,1010.33,VALID,0,VALID,101.545,VALID,0,VALID,23.6179,VALID,360,VALID,0,
2010-08-25, 00:03:04,VALID,1010.35,VALID,0,VALID,101.59,VALID,0,VALID,23.5966,VALID,360,VALID,0,
2010-08-25, 00:04:04,VALID,1010.35,VALID,0,VALID,101.598,VALID,0,VALID,23.5984,VALID,360,VALID,0,
2010-08-25, 00:05:04,VALID,1010.33,VALID,0,VALID,101.644,VALID,0.105969,VALID,23.5558,VALID,360,VALID,0,
2010-08-25, 00:06:04,VALID,1010.33,VALID,0,VALID,101.689,VALID,0.105969,VALID,23.5558,VALID,360,VALID,0,
2010-08-25, 00:07:04,VALID,1010.34,VALID,0,VALID,101.712,VALID,0.105969,VALID,23.5363,VALID,360,VALID,0,
2010-08-25, 00:08:04,VALID,1010.36,VALID,0,VALID,101.743,VALID,0.105969,VALID,23.5363,VALID,360,VALID,0,
2010-08-25, 00:09:04,VALID,1010.36,VALID,0,VALID,101.773,VALID,0,VALID,23.5558,VALID,360,VALID,0,
2010-08-25, 00:10:04,VALID,1010.37,VALID,0,VALID,101.789,VALID,0.105969,VALID,23.5363,VALID,360,VALID,0,
2010-08-25, 00:11:04,VALID,1010.36,VALID,0,VALID,101.811,VALID,0.105969,VALID,23.5576,VALID,360,VALID,0,
2010-08-25, 00:12:04,VALID,1010.37,VALID,0,VALID,101.865,VALID,0,VALID,23.5363,VALID,360,VALID,0,
2010-08-25, 00:13:04,VALID,1010.37,VALID,0,VALID,101.865,VALID,0.105969,VALID,23.5363,VALID,360,VALID,0.0015625,
2010-08-25, 00:14:04,VALID,1010.37,VALID,0,VALID,101.903,VALID,0.105969,VALID,23.5169,VALID,360,VALID,0,
2010-08-25, 00:15:04,VALID,1010.38,VALID,0,VALID,101.949,VALID,0.105969,VALID,23.5169,VALID,360,VALID,0,
2010-08-25, 00:16:04,VALID,1010.37,VALID,0,VALID,101.956,VALID,0,VALID,23.4974,VALID,360,VALID,0.183203,
2010-08-25, 00:17:04,VALID,1010.36,VALID,0,VALID,101.956,VALID,0,VALID,23.4974,VALID,360,VALID,0.0265625,
2010-08-25, 00:18:04,VALID,1010.35,VALID,0,VALID,101.949,VALID,0.105969,VALID,23.4992,VALID,360,VALID,0,
2010-08-25, 00:19:04,VALID,1010.33,VALID,0,VALID,101.888,VALID,0.105969,VALID,23.4779,VALID,360,VALID,0.090625,
2010-08-25, 00:20:04,VALID,1010.32,VALID,0,VALID,101.926,VALID,0.105969,VALID,23.4974,VALID,360,VALID,0.276953,
2010-08-25, 00:21:04,VALID,1010.32,VALID,0,VALID,101.964,VALID,0.105969,VALID,23.5169,VALID,360,VALID,0.0492188,
2010-08-25, 00:22:04,VALID,1010.3,VALID,0,VALID,101.933,VALID,0.105969,VALID,23.5381,VALID,360,VALID,0.156641,
2010-08-25, 00:23:04,VALID,1010.28,VALID,0,VALID,101.857,VALID,0.105969,VALID,23.5363,VALID,360,VALID,0.300781,
2010-08-25, 00:24:04,VALID,1010.28,VALID,0,VALID,101.72,VALID,0,VALID,23.5363,VALID,360,VALID,0.267188,
2010-08-25, 00:25:04,VALID,1010.28,VALID,0,VALID,101.659,VALID,0.105969,VALID,23.5381,VALID,360,VALID,0.141797,
2010-08-25, 00:26:04,VALID,1010.3,VALID,0,VALID,101.628,VALID,0.105969,VALID,23.5381,VALID,360,VALID,0,
2010-08-25, 00:27:04,VALID,1010.3,VALID,0,VALID,101.598,VALID,0.105969,VALID,23.4974,VALID,360,VALID,0.323438,
2010-08-25, 00:28:04,VALID,1010.28,VALID,0,VALID,101.583,VALID,0.105969,VALID,23.4974,VALID,360,VALID,0.294141,
2010-08-25, 00:29:04,VALID,1010.31,VALID,0,VALID,101.583,VALID,0.105969,VALID,23.4584,VALID,360,VALID,0.439844,
2010-08-25, 00:30:04,VALID,1010.29,VALID,0,VALID,101.72,VALID,0.105969,VALID,23.4389,VALID,360,VALID,0.389844,
2010-08-25, 00:31:04,VALID,1010.3,VALID,0,VALID,101.88,VALID,0.105969,VALID,23.4194,VALID,360,VALID,0.398438,
2010-08-25, 00:32:04,VALID,1010.3,VALID,0,VALID,101.987,VALID,0.105969,VALID,23.4,VALID,360,VALID,0.340625,
2010-08-25, 00:33:04,VALID,1010.28,VALID,0,VALID,102.071,VALID,0.105969,VALID,23.3805,VALID,360,VALID,0.120703,
2010-08-25, 00:34:04,VALID,1010.27,VALID,0,VALID,102.139,VALID,0.105969,VALID,23.3805,VALID,360,VALID,0.183594,
2010-08-25, 00:35:04,VALID,1010.26,VALID,0,VALID,102.185,VALID,0.105969,VALID,23.361,VALID,360,VALID,0.274219,
2010-08-25, 00:36:04,VALID,1010.27,VALID,0,VALID,102.261,VALID,0.105969,VALID,23.361,VALID,360,VALID,0.367969,
2010-08-25, 00:37:04,VALID,1010.22,VALID,0,VALID,102.299,VALID,0,VALID,23.3415,VALID,360,VALID,0.338672,
2010-08-25, 00:38:04,VALID,1010.21,VALID,0,VALID,102.368,VALID,0.105969,VALID,23.3415,VALID,360,VALID,0.167578,
2010-08-25, 00:39:04,VALID,1010.21,VALID,0,VALID,102.429,VALID,0.105969,VALID,23.322,VALID,360,VALID,0.258984,
2010-08-25, 00:40:04,VALID,1010.19,VALID,0,VALID,102.46,VALID,0.105969,VALID,23.3415,VALID,360,VALID,0.258203,
2010-08-25, 00:41:04,VALID,1010.19,VALID,0,VALID,102.475,VALID,0.105969,VALID,23.3415,VALID,360,VALID,0.114063,
2010-08-25, 00:42:04,VALID,1010.2,VALID,0,VALID,102.475,VALID,0.105969,VALID,23.3415,VALID,360,VALID,0,
2010-08-25, 00:43:04,VALID,1010.17,VALID,0,VALID,102.49,VALID,0.105969,VALID,23.322,VALID,360,VALID,0,
2010-08-25, 00:44:04,VALID,1010.21,VALID,0,VALID,102.513,VALID,0.105969,VALID,23.322,VALID,360,VALID,0,
2010-08-25, 00:45:04,VALID,1010.18,VALID,0,VALID,102.551,VALID,0.105969,VALID,23.322,VALID,360,VALID,0,
2010-08-25, 00:46:04,VALID,1010.17,VALID,0,VALID,102.574,VALID,0.105969,VALID,23.3238,VALID,360,VALID,0,
2010-08-25, 00:47:04,VALID,1010.17,VALID,0,VALID,102.597,VALID,0.105969,VALID,23.3026,VALID,360,VALID,0.164844,
2010-08-25, 00:48:04,VALID,1010.18,VALID,0,VALID,102.643,VALID,0.105969,VALID,23.2831,VALID,360,VALID,0.250781,
2010-08-25, 00:49:04,VALID,1010.12,VALID,0,VALID,102.681,VALID,0.105969,VALID,23.2636,VALID,360,VALID,0.175391,
2010-08-25, 00:50:04,VALID,1010.11,VALID,0,VALID,102.688,VALID,0.105969,VALID,23.2636,VALID,360,VALID,0,
2010-08-25, 00:51:04,VALID,1010.11,VALID,0,VALID,102.727,VALID,0.105969,VALID,23.2441,VALID,360,VALID,0,
2010-08-25, 00:52:04,VALID,1010.05,VALID,0,VALID,102.757,VALID,0.105969,VALID,23.2441,VALID,360,VALID,0,
2010-08-25, 00:53:04,VALID,1010.02,VALID,0,VALID,102.772,VALID,0,VALID,23.2654,VALID,360,VALID,0.121875,
2010-08-25, 00:54:04,VALID,1009.99,VALID,0,VALID,102.803,VALID,0.105969,VALID,23.2459,VALID,360,VALID,0.295703,
2010-08-25, 00:55:04,VALID,1009.95,VALID,0,VALID,102.826,VALID,0.105969,VALID,23.2441,VALID,360,VALID,0.188672,
2010-08-25, 00:56:04,VALID,1009.92,VALID,0,VALID,102.841,VALID,0.105969,VALID,23.2636,VALID,360,VALID,0.376563,
2010-08-25, 00:57:04,VALID,1009.91,VALID,0,VALID,102.856,VALID,0,VALID,23.2636,VALID,360,VALID,0.242188,
2010-08-25, 00:58:04,VALID,1009.89,VALID,0,VALID,102.864,VALID,0.105969,VALID,23.2636,VALID,360,VALID,0.106641,
2010-08-25, 00:59:04,VALID,1009.88,VALID,0,VALID,102.864,VALID,0.105969,VALID,23.2636,VALID,360,VALID,0.000390625,
2010-08-25, 01:00:04,VALID,1009.88,VALID,0,VALID,102.879,VALID,0.105969,VALID,23.2636,VALID,360,VALID,0,
2010-08-25, 01:01:04,VALID,1009.9,VALID,0,VALID,102.871,VALID,0,VALID,23.2636,VALID,360,VALID,0,
2010-08-25, 01:02:04,VALID,1009.91,VALID,0,VALID,102.902,VALID,0.105969,VALID,23.2831,VALID,360,VALID,0,
2010-08-25, 01:03:04,VALID,1009.87,VALID,0,VALID,102.894,VALID,0.105969,VALID,23.2831,VALID,360,VALID,0,
2010-08-25, 01:04:04,VALID,1009.89,VALID,0,VALID,102.894,VALID,0.105969,VALID,23.2831,VALID,360,VALID,0,
2010-08-25, 01:05:04,VALID,1009.87,VALID,0,VALID,102.902,VALID,0,VALID,23.3061,VALID,360,VALID,0,
2010-08-25, 01:06:04,VALID,1009.84,VALID,0,VALID,102.879,VALID,0,VALID,23.3061,VALID,360,VALID,0,
2010-08-25, 01:07:04,VALID,1009.84,VALID,0,VALID,102.871,VALID,0,VALID,23.2866,VALID,360,VALID,0,
2010-08-25, 01:08:04,VALID,1009.8,VALID,0,VALID,102.833,VALID,0,VALID,23.2848,VALID,360,VALID,0,
2010-08-25, 01:09:04,VALID,1009.79,VALID,0,VALID,102.849,VALID,0,VALID,23.3061,VALID,360,VALID,0,
2010-08-25, 01:10:04,VALID,1009.75,VALID,0,VALID,102.864,VALID,0,VALID,23.3061,VALID,360,VALID,0.0480469,
2010-08-25, 01:11:04,VALID,1009.76,VALID,0,VALID,102.833,VALID,0,VALID,23.3043,VALID,360,VALID,0.405469,
2010-08-25, 01:12:04,VALID,1009.73,VALID,0,VALID,102.841,VALID,0,VALID,23.3043,VALID,360,VALID,0.296484,
2010-08-25, 01:13:04,VALID,1009.73,VALID,0,VALID,102.826,VALID,0,VALID,23.3061,VALID,360,VALID,0.187109,
2010-08-25, 01:14:04,VALID,1009.71,VALID,0,VALID,102.818,VALID,0,VALID,23.3043,VALID,360,VALID,0.153125,
2010-08-25, 01:15:04,VALID,1009.68,VALID,0,VALID,102.81,VALID,0,VALID,23.3043,VALID,360,VALID,0,
2010-08-25, 01:16:05,VALID,1009.69,VALID,0,VALID,102.833,VALID,0,VALID,23.3061,VALID,360,VALID,0.0875,
2010-08-25, 01:17:05,VALID,1009.69,VALID,0,VALID,102.78,VALID,0,VALID,23.2866,VALID,360,VALID,0.107031,
2010-08-25, 01:18:05,VALID,1009.69,VALID,0,VALID,102.788,VALID,0,VALID,23.2654,VALID,360,VALID,0.174219,
2010-08-25, 01:19:05,VALID,1009.68,VALID,0,VALID,102.765,VALID,0,VALID,23.2671,VALID,360,VALID,0.137891,
2010-08-25, 01:20:05,VALID,1009.67,VALID,0,VALID,102.765,VALID,0,VALID,23.2654,VALID,360,VALID,0,
2010-08-25, 01:21:05,VALID,1009.65,VALID,0,VALID,102.757,VALID,0,VALID,23.2441,VALID,360,VALID,0.0015625,
2010-08-25, 01:22:05,VALID,1009.64,VALID,0,VALID,102.78,VALID,0.105969,VALID,23.2636,VALID,360,VALID,0.239063,
2010-08-25, 01:23:05,VALID,1009.59,VALID,0,VALID,102.818,VALID,0,VALID,23.2848,VALID,360,VALID,0.122656,
2010-08-25, 01:24:05,VALID,1009.55,VALID,0,VALID,102.833,VALID,0,VALID,23.2848,VALID,360,VALID,0.403906,
2010-08-25, 01:25:05,VALID,1009.51,VALID,0,VALID,102.826,VALID,0,VALID,23.2848,VALID,360,VALID,0.280469,
2010-08-25, 01:26:05,VALID,1009.49,VALID,0,VALID,102.81,VALID,0.105969,VALID,23.2636,VALID,349,VALID,0.303516,
2010-08-25, 01:27:05,VALID,1009.47,VALID,0,VALID,102.765,VALID,0,VALID,23.3026,VALID,349,VALID,0.559766,
2010-08-25, 01:28:05,VALID,1009.46,VALID,0,VALID,102.734,VALID,0.105969,VALID,23.322,VALID,349,VALID,0.353906,
2010-08-25, 01:29:05,VALID,1009.46,VALID,0,VALID,102.666,VALID,0,VALID,23.3026,VALID,349,VALID,0.270703,
2010-08-25, 01:30:05,VALID,1009.46,VALID,0,VALID,102.627,VALID,0.105969,VALID,23.2831,VALID,349,VALID,0,
2010-08-25, 01:31:05,VALID,1009.44,VALID,0,VALID,102.582,VALID,0,VALID,23.2831,VALID,349,VALID,0,
2010-08-25, 01:32:05,VALID,1009.42,VALID,0,VALID,102.559,VALID,0,VALID,23.2848,VALID,349,VALID,0,
2010-08-25, 01:33:05,VALID,1009.42,VALID,0,VALID,102.521,VALID,0,VALID,23.2636,VALID,349,VALID,0.0820313,
2010-08-25, 01:34:05,VALID,1009.37,VALID,0,VALID,102.505,VALID,0,VALID,23.2441,VALID,349,VALID,0,
2010-08-25, 01:35:05,VALID,1009.36,VALID,0,VALID,102.513,VALID,0,VALID,23.2459,VALID,349,VALID,0,
2010-08-25, 01:36:05,VALID,1009.33,VALID,0,VALID,102.559,VALID,0,VALID,23.2671,VALID,349,VALID,0.0175781,
2010-08-25, 01:37:05,VALID,1009.33,VALID,0,VALID,102.582,VALID,0,VALID,23.2671,VALID,349,VALID,0,
2010-08-25, 01:38:05,VALID,1009.3,VALID,0,VALID,102.612,VALID,0,VALID,23.2264,VALID,349,VALID,0,
2010-08-25, 01:39:05,VALID,1009.31,VALID,0,VALID,102.658,VALID,0,VALID,23.2264,VALID,349,VALID,0.198437,
2010-08-25, 01:40:05,VALID,1009.29,VALID,0,VALID,102.658,VALID,0,VALID,23.2264,VALID,349,VALID,0.291797,
2010-08-25, 01:41:05,VALID,1009.29,VALID,0,VALID,102.658,VALID,0,VALID,23.2282,VALID,349,VALID,0.34375,
2010-08-25, 01:42:05,VALID,1009.29,VALID,0,VALID,102.627,VALID,0,VALID,23.2282,VALID,349,VALID,0.150391,
2010-08-25, 01:43:05,VALID,1009.26,VALID,0,VALID,102.605,VALID,0,VALID,23.2069,VALID,349,VALID,0,
2010-08-25, 01:44:05,VALID,1009.29,VALID,0,VALID,102.627,VALID,0,VALID,23.2282,VALID,349,VALID,0,
2010-08-25, 01:45:05,VALID,1009.27,VALID,0,VALID,102.62,VALID,0,VALID,23.2087,VALID,349,VALID,0,
2010-08-25, 01:46:05,VALID,1009.31,VALID,0,VALID,102.62,VALID,0,VALID,23.1892,VALID,349,VALID,0,
2010-08-25, 01:47:05,VALID,1009.3,VALID,0,VALID,102.605,VALID,0,VALID,23.1679,VALID,349,VALID,0.451562,
2010-08-25, 01:48:05,VALID,1009.31,VALID,0,VALID,102.597,VALID,0,VALID,23.1679,VALID,349,VALID,0.410547,
2010-08-25, 01:49:05,VALID,1009.32,VALID,0,VALID,102.582,VALID,0,VALID,23.1697,VALID,349,VALID,0.382813,
2010-08-25, 01:50:05,VALID,1009.33,VALID,0,VALID,102.566,VALID,0,VALID,23.1485,VALID,349,VALID,0.178906,
2010-08-25, 01:51:05,VALID,1009.36,VALID,0,VALID,102.551,VALID,0,VALID,23.1485,VALID,349,VALID,0,
2010-08-25, 01:52:05,VALID,1009.34,VALID,0,VALID,102.574,VALID,0,VALID,23.129,VALID,349,VALID,0,
2010-08-25, 01:53:05,VALID,1009.36,VALID,0,VALID,102.574,VALID,0,VALID,23.1502,VALID,349,VALID,0,
2010-08-25, 01:54:05,VALID,1009.38,VALID,0,VALID,102.635,VALID,0,VALID,23.1307,VALID,349,VALID,0.140234,
2010-08-25, 01:55:05,VALID,1009.39,VALID,0,VALID,102.643,VALID,0,VALID,23.1095,VALID,349,VALID,0.145703,
2010-08-25, 01:56:05,VALID,1009.36,VALID,0,VALID,102.65,VALID,0,VALID,23.1112,VALID,349,VALID,0,
2010-08-25, 01:57:05,VALID,1009.35,VALID,0,VALID,102.673,VALID,0,VALID,23.09,VALID,349,VALID,0,
2010-08-25, 01:58:05,VALID,1009.34,VALID,0,VALID,102.688,VALID,0,VALID,23.1112,VALID,349,VALID,0,
2010-08-25, 01:59:05,VALID,1009.33,VALID,0,VALID,102.696,VALID,0,VALID,23.09,VALID,349,VALID,0,
2010-08-25, 02:00:05,VALID,1009.32,VALID,0,VALID,102.719,VALID,0,VALID,23.0705,VALID,349,VALID,0,
2010-08-25, 02:01:05,VALID,1009.31,VALID,0,VALID,102.711,VALID,0,VALID,23.09,VALID,349,VALID,0,
2010-08-25, 02:02:05,VALID,1009.3,VALID,0,VALID,102.727,VALID,0,VALID,23.0918,VALID,349,VALID,0,
2010-08-25, 02:03:05,VALID,1009.29,VALID,0,VALID,102.704,VALID,0,VALID,23.0511,VALID,349,VALID,0,
2010-08-25, 02:04:05,VALID,1009.31,VALID,0,VALID,102.696,VALID,0,VALID,23.0723,VALID,349,VALID,0,
2010-08-25, 02:05:05,VALID,1009.26,VALID,0,VALID,102.704,VALID,0,VALID,23.0511,VALID,349,VALID,0,
2010-08-25, 02:06:05,VALID,1009.27,VALID,0,VALID,102.688,VALID,0,VALID,23.0316,VALID,349,VALID,0,
2010-08-25, 02:07:05,VALID,1009.21,VALID,0,VALID,102.688,VALID,0,VALID,23.0316,VALID,349,VALID,0,
2010-08-25, 02:08:05,VALID,1009.22,VALID,0,VALID,102.673,VALID,0,VALID,23.0528,VALID,349,VALID,0,
2010-08-25, 02:09:05,VALID,1009.21,VALID,0,VALID,102.704,VALID,0,VALID,23.0316,VALID,349,VALID,0,
2010-08-25, 02:10:05,VALID,1009.22,VALID,0,VALID,102.719,VALID,0,VALID,23.0316,VALID,349,VALID,0,
2010-08-25, 02:11:05,VALID,1009.22,VALID,0,VALID,102.727,VALID,0,VALID,23.0316,VALID,349,VALID,0,
2010-08-25, 02:12:05,VALID,1009.18,VALID,0,VALID,102.742,VALID,0,VALID,23.0316,VALID,349,VALID,0,
2010-08-25, 02:13:05,VALID,1009.2,VALID,0,VALID,102.757,VALID,0,VALID,23.0316,VALID,349,VALID,0,
2010-08-25, 02:14:05,VALID,1009.19,VALID,0,VALID,102.757,VALID,0,VALID,23.0121,VALID,349,VALID,0,
2010-08-25, 02:15:05,VALID,1009.2,VALID,0,VALID,102.81,VALID,0,VALID,23.0121,VALID,349,VALID,0,
2010-08-25, 02:16:05,VALID,1009.22,VALID,0,VALID,102.818,VALID,0,VALID,23.0103,VALID,349,VALID,0,
2010-08-25, 02:17:05,VALID,1009.2,VALID,0,VALID,102.864,VALID,0,VALID,23.0316,VALID,349,VALID,0,
2010-08-25, 02:18:05,VALID,1009.21,VALID,0,VALID,102.871,VALID,0,VALID,23.0121,VALID,349,VALID,0,
2010-08-25, 02:19:05,VALID,1009.2,VALID,0,VALID,102.879,VALID,0,VALID,23.0333,VALID,349,VALID,0,
2010-08-25, 02:20:05,VALID,1009.19,VALID,0,VALID,102.894,VALID,0.105969,VALID,23.0103,VALID,349,VALID,0,
2010-08-25, 02:21:05,VALID,1009.18,VALID,0,VALID,102.925,VALID,0.105969,VALID,23.0103,VALID,349,VALID,0,
2010-08-25, 02:22:05,VALID,1009.2,VALID,0,VALID,102.94,VALID,0.105969,VALID,22.9909,VALID,349,VALID,0,
2010-08-25, 02:23:05,VALID,1009.22,VALID,0,VALID,102.948,VALID,0.105969,VALID,23.0103,VALID,349,VALID,0,
2010-08-25, 02:24:05,VALID,1009.21,VALID,0,VALID,102.978,VALID,0.105969,VALID,22.9909,VALID,349,VALID,0,
2010-08-25, 02:25:05,VALID,1009.22,VALID,0,VALID,102.955,VALID,0.105969,VALID,22.9909,VALID,349,VALID,0,
2010-08-25, 02:26:05,VALID,1009.22,VALID,0,VALID,102.955,VALID,0.105969,VALID,22.9714,VALID,349,VALID,0.314844,
2010-08-25, 02:27:05,VALID,1009.2,VALID,0,VALID,102.917,VALID,0.105969,VALID,22.9519,VALID,349,VALID,0.309375,
2010-08-25, 02:28:05,VALID,1009.23,VALID,0,VALID,102.917,VALID,0.105969,VALID,22.9731,VALID,349,VALID,0.235938,
2010-08-25, 02:29:05,VALID,1009.21,VALID,0,VALID,102.894,VALID,0.105969,VALID,22.9324,VALID,349,VALID,0.110937,
2010-08-25, 02:30:05,VALID,1009.22,VALID,0,VALID,102.917,VALID,0.105969,VALID,22.9324,VALID,349,VALID,0,
2010-08-25, 02:31:05,VALID,1009.22,VALID,0,VALID,102.932,VALID,0.105969,VALID,22.9112,VALID,349,VALID,0,
2010-08-25, 02:32:05,VALID,1009.19,VALID,0,VALID,102.948,VALID,0.105969,VALID,22.9324,VALID,349,VALID,0,
2010-08-25, 02:33:05,VALID,1009.16,VALID,0,VALID,102.971,VALID,0.105969,VALID,22.9324,VALID,349,VALID,0,
2010-08-25, 02:34:05,VALID,1009.11,VALID,0,VALID,102.993,VALID,0.105969,VALID,22.9129,VALID,349,VALID,0,
2010-08-25, 02:35:05,VALID,1009.12,VALID,0,VALID,102.993,VALID,0,VALID,22.9147,VALID,349,VALID,0,
2010-08-25, 02:36:05,VALID,1009.11,VALID,0,VALID,103.009,VALID,0,VALID,22.9147,VALID,349,VALID,0,
2010-08-25, 02:37:05,VALID,1009.12,VALID,0,VALID,103.016,VALID,0,VALID,22.9164,VALID,349,VALID,0,
2010-08-25, 02:38:05,VALID,1009.1,VALID,0,VALID,103.016,VALID,0,VALID,22.8952,VALID,349,VALID,0,
2010-08-25, 02:39:05,VALID,1009.11,VALID,0,VALID,103.009,VALID,0,VALID,22.8952,VALID,349,VALID,0,
2010-08-25, 02:40:05,VALID,1009.09,VALID,0,VALID,103.001,VALID,0,VALID,22.8952,VALID,349,VALID,0,
2010-08-25, 02:41:05,VALID,1009.13,VALID,0,VALID,103.016,VALID,0,VALID,22.8969,VALID,349,VALID,0,
2010-08-25, 02:42:05,VALID,1009.1,VALID,0,VALID,103.009,VALID,0,VALID,22.8757,VALID,349,VALID,0,
2010-08-25, 02:43:05,VALID,1009.1,VALID,0,VALID,103.016,VALID,0,VALID,22.8757,VALID,349,VALID,0,
2010-08-25, 02:44:05,VALID,1009.06,VALID,0,VALID,103.009,VALID,0,VALID,22.8562,VALID,349,VALID,0,
2010-08-25, 02:45:05,VALID,1009.06,VALID,0,VALID,102.993,VALID,0,VALID,22.8757,VALID,349,VALID,0,
2010-08-25, 02:46:05,VALID,1009.06,VALID,0,VALID,102.993,VALID,0,VALID,22.8562,VALID,349,VALID,0,
2010-08-25, 02:47:05,VALID,1009.02,VALID,0,VALID,103.016,VALID,0,VALID,22.8775,VALID,349,VALID,0,
2010-08-25, 02:48:05,VALID,1009,VALID,0,VALID,103.024,VALID,0,VALID,22.8562,VALID,349,VALID,0,
2010-08-25, 02:49:05,VALID,1008.97,VALID,0,VALID,103.024,VALID,0,VALID,22.8562,VALID,349,VALID,0,
2010-08-25, 02:50:05,VALID,1008.94,VALID,0,VALID,103.016,VALID,0,VALID,22.8562,VALID,349,VALID,0,
2010-08-25, 02:51:05,VALID,1008.92,VALID,0,VALID,103.054,VALID,0,VALID,22.8562,VALID,349,VALID,0,
2010-08-25, 02:52:05,VALID,1008.87,VALID,0,VALID,103.039,VALID,0.105969,VALID,22.8562,VALID,349,VALID,0,
2010-08-25, 02:53:05,VALID,1008.84,VALID,0,VALID,103.047,VALID,0,VALID,22.8562,VALID,349,VALID,0,
2010-08-25, 02:54:05,VALID,1008.8,VALID,0,VALID,103.054,VALID,0,VALID,22.8562,VALID,349,VALID,0,
2010-08-25, 02:55:05,VALID,1008.79,VALID,0,VALID,103.054,VALID,0,VALID,22.8775,VALID,349,VALID,0,
2010-08-25, 02:56:05,VALID,1008.77,VALID,0,VALID,103.039,VALID,0,VALID,22.8368,VALID,349,VALID,0,
2010-08-25, 02:57:05,VALID,1008.74,VALID,0,VALID,103.039,VALID,0,VALID,22.8368,VALID,349,VALID,0,
2010-08-25, 02:58:05,VALID,1008.7,VALID,0,VALID,103.032,VALID,0.105969,VALID,22.8368,VALID,349,VALID,0,
2010-08-25, 02:59:05,VALID,1008.69,VALID,0,VALID,103.047,VALID,0,VALID,22.8155,VALID,349,VALID,0,
2010-08-25, 03:00:05,VALID,1008.67,VALID,0,VALID,103.07,VALID,0,VALID,22.8368,VALID,349,VALID,0,
2010-08-25, 03:01:05,VALID,1008.69,VALID,0,VALID,103.077,VALID,0,VALID,22.8385,VALID,349,VALID,0,
2010-08-25, 03:02:05,VALID,1008.69,VALID,0,VALID,103.093,VALID,0,VALID,22.8155,VALID,349,VALID,0,
2010-08-25, 03:03:05,VALID,1008.69,VALID,0,VALID,103.1,VALID,0,VALID,22.8368,VALID,349,VALID,0,
2010-08-25, 03:04:05,VALID,1008.68,VALID,0,VALID,103.108,VALID,0,VALID,22.8368,VALID,349,VALID,0,
2010-08-25, 03:05:05,VALID,1008.68,VALID,0,VALID,103.108,VALID,0,VALID,22.8173,VALID,349,VALID,0,
2010-08-25, 03:06:05,VALID,1008.69,VALID,0,VALID,103.131,VALID,0,VALID,22.8385,VALID,349,VALID,0,
2010-08-25, 03:07:05,VALID,1008.72,VALID,0,VALID,103.123,VALID,0.105969,VALID,22.7978,VALID,349,VALID,0,
2010-08-25, 03:08:05,VALID,1008.74,VALID,0,VALID,103.115,VALID,0,VALID,22.7978,VALID,349,VALID,0,
2010-08-25, 03:09:05,VALID,1008.74,VALID,0,VALID,103.131,VALID,0,VALID,22.7978,VALID,349,VALID,0,
2010-08-25, 03:10:05,VALID,1008.77,VALID,0,VALID,103.131,VALID,0,VALID,22.7783,VALID,349,VALID,0,
2010-08-25, 03:11:05,VALID,1008.78,VALID,0,VALID,103.138,VALID,0,VALID,22.7783,VALID,349,VALID,0,
2010-08-25, 03:12:05,VALID,1008.77,VALID,0,VALID,103.154,VALID,0,VALID,22.7783,VALID,349,VALID,0,
2010-08-25, 03:13:05,VALID,1008.79,VALID,0,VALID,103.169,VALID,0,VALID,22.7783,VALID,349,VALID,0,
2010-08-25, 03:14:05,VALID,1008.8,VALID,0,VALID,103.169,VALID,0.105969,VALID,22.7571,VALID,349,VALID,0,
2010-08-25, 03:15:05,VALID,1008.79,VALID,0,VALID,103.176,VALID,0,VALID,22.7588,VALID,349,VALID,0,
2010-08-25, 03:16:05,VALID,1008.79,VALID,0,VALID,103.176,VALID,0,VALID,22.7588,VALID,349,VALID,0,
2010-08-25, 03:17:05,VALID,1008.77,VALID,0,VALID,103.176,VALID,0,VALID,22.7394,VALID,349,VALID,0,
2010-08-25, 03:18:05,VALID,1008.75,VALID,0,VALID,103.169,VALID,0.105969,VALID,22.7394,VALID,349,VALID,0,
2010-08-25, 03:19:05,VALID,1008.75,VALID,0,VALID,103.169,VALID,0,VALID,22.7199,VALID,349,VALID,0,
2010-08-25, 03:20:05,VALID,1008.77,VALID,0,VALID,103.184,VALID,0,VALID,22.7199,VALID,349,VALID,0,
2010-08-25, 03:21:05,VALID,1008.74,VALID,0,VALID,103.184,VALID,0,VALID,22.7004,VALID,349,VALID,0,
2010-08-25, 03:22:05,VALID,1008.76,VALID,0,VALID,103.184,VALID,0,VALID,22.7004,VALID,349,VALID,0,
2010-08-25, 03:23:05,VALID,1008.75,VALID,0,VALID,103.176,VALID,0,VALID,22.7004,VALID,349,VALID,0,
2010-08-25, 03:24:05,VALID,1008.76,VALID,0,VALID,103.192,VALID,0,VALID,22.6809,VALID,349,VALID,0,
2010-08-25, 03:25:05,VALID,1008.78,VALID,0,VALID,103.192,VALID,0,VALID,22.6597,VALID,349,VALID,0,
2010-08-25, 03:26:05,VALID,1008.79,VALID,0,VALID,103.192,VALID,0,VALID,22.6614,VALID,349,VALID,0,
2010-08-25, 03:27:05,VALID,1008.82,VALID,0,VALID,103.23,VALID,0,VALID,22.6614,VALID,349,VALID,0,
2010-08-25, 03:28:05,VALID,1008.83,VALID,0,VALID,103.23,VALID,0,VALID,22.6632,VALID,349,VALID,0,
2010-08-25, 03:29:05,VALID,1008.83,VALID,0,VALID,103.222,VALID,0,VALID,22.6614,VALID,349,VALID,0,
2010-08-25, 03:30:05,VALID,1008.83,VALID,0,VALID,103.215,VALID,0,VALID,22.6614,VALID,349,VALID,0,
2010-08-25, 03:31:05,VALID,1008.84,VALID,0,VALID,103.192,VALID,0,VALID,22.6614,VALID,349,VALID,0,
2010-08-25, 03:32:05,VALID,1008.82,VALID,0,VALID,103.207,VALID,0,VALID,22.6402,VALID,349,VALID,0,
2010-08-25, 03:33:05,VALID,1008.87,VALID,0,VALID,103.237,VALID,0,VALID,22.6614,VALID,349,VALID,0,
2010-08-25, 03:34:05,VALID,1008.85,VALID,0,VALID,103.222,VALID,0,VALID,22.6402,VALID,349,VALID,0,
2010-08-25, 03:35:05,VALID,1008.84,VALID,0,VALID,103.215,VALID,0,VALID,22.6614,VALID,349,VALID,0,
2010-08-25, 03:36:05,VALID,1008.85,VALID,0,VALID,103.222,VALID,0,VALID,22.6614,VALID,349,VALID,0,
2010-08-25, 03:37:05,VALID,1008.85,VALID,0,VALID,103.207,VALID,0,VALID,22.6809,VALID,354,VALID,0,
2010-08-25, 03:38:05,VALID,1008.84,VALID,0,VALID,103.215,VALID,0,VALID,22.6809,VALID,81,VALID,0,
2010-08-25, 03:39:05,VALID,1008.82,VALID,0,VALID,103.207,VALID,0,VALID,22.6809,VALID,81,VALID,0,
2010-08-25, 03:40:05,VALID,1008.8,VALID,0,VALID,103.207,VALID,0,VALID,22.6809,VALID,81,VALID,0,
2010-08-25, 03:41:05,VALID,1008.81,VALID,0,VALID,103.222,VALID,0,VALID,22.7004,VALID,81,VALID,0,
2010-08-25, 03:42:05,VALID,1008.82,VALID,0,VALID,103.184,VALID,0,VALID,22.7004,VALID,81,VALID,0,
2010-08-25, 03:43:05,VALID,1008.81,VALID,0,VALID,103.176,VALID,0,VALID,22.7004,VALID,81,VALID,0,
2010-08-25, 03:44:05,VALID,1008.82,VALID,0,VALID,103.169,VALID,0,VALID,22.7004,VALID,81,VALID,0,
2010-08-25, 03:45:05,VALID,1008.81,VALID,0,VALID,103.154,VALID,0,VALID,22.6809,VALID,81,VALID,0,
2010-08-25, 03:46:05,VALID,1008.8,VALID,0,VALID,103.131,VALID,0,VALID,22.6614,VALID,81,VALID,0,
2010-08-25, 03:47:05,VALID,1008.8,VALID,0,VALID,103.138,VALID,0,VALID,22.642,VALID,81,VALID,0,
2010-08-25, 03:48:05,VALID,1008.81,VALID,0,VALID,103.131,VALID,0,VALID,22.642,VALID,81,VALID,0,
2010-08-25, 03:49:05,VALID,1008.77,VALID,0,VALID,103.115,VALID,0,VALID,22.603,VALID,81,VALID,0,
2010-08-25, 03:50:05,VALID,1008.81,VALID,0,VALID,103.093,VALID,0,VALID,22.5818,VALID,81,VALID,0,